Location: Chanteloup
(48.8560°N, 2.7390°E)
Time: 15:49:36
(UTC+00:00)

Cosmos 371 Rocket - Pass Details

Date: 24 October 2021
Orbit: 683 x 699 km, 74.0° (Epoch: 28 November)

Event Time Altitude Azimuth Distance (km) Brightness Sun altitude
Rises 18:05:49 0° 205° (SSW) 3,059 7.0 -14.4°
Reaches altitude 10° 18:08:07 10° 207° (SSW) 2,148 6.2 -14.7°
Maximum altitude 18:12:58 78° 294° (WNW) 718 3.4 -15.5°
Drops below altitude 10° 18:17:52 10° 21° (NNE) 2,171 5.6 -16.3°
Sets 18:20:13 0° 23° (NNE) 3,094 6.4 -16.7°
